STARLINK-11744, 64380

Orbit data source: Space-Track

STARLINK-11744, 64380 is a payload satellite owned by SpaceX/Seattle (US) in LEO that was launched on Fri, 13 Jun 2025 UTC via an FALCON 9 launch vehicle from the Air Force Eastern Test Range (AFETR). Payload-class satellites include a variety of spacecraft equipped with specific instruments for various scientific and technological missions. These include communications satellites like Starlink; space stations such as the ISS; scientific satellites like the Hubble; Earth observation satellites from companies like Planet Labs, Umbra, and HawkEye 360; GPS; miniature CubeSats for education and research; and military/defense satellites.

Loading next visibility...
Identifier
64380, 2025-127L
Orbit
LEO
Country
Flag of USUS
Related business
Manufacturer
SpaceX/Seattle
Mission
Operational Commercial Communications
Bus & Motor
STARLINK V2MD, Unknown motor
Mass
960 kg wet, ~910 kg dry
Launch date (UTC)
2025-06-13 (10 months ago)
Launch vehicle
FALCON 9
Launch site
Air Force Eastern Test Range (AFETR)
Object type
Payload
Rocket body
Debris
Shape & HBR
Box + 2 Pan, 18.1 m
Radar Cross Section
36.964 m², Large (>1 m²)

Expand to show TLE details & history
Last TLE update: 8 hours ago

TLE from 8 hours ago
0 STARLINK-11744
1 64380U 25127L   26095.53957799  .00253459  00000-0  19141-2 0  9990
2 64380  42.9982 282.8268 0001851 262.9249  97.1408 15.70902855 47723
Epoch: 2026-04-05T12:56Z
TLE epoch observation values (Epoch: 2026-04-05T12:56:59.538Z)
Latitude
-0.00002°
Longitude
-105.26484°
Altitude
356.242 km
Speed
7.697 km/s
True Right ascension
18h 51m 18s
True Declination
0° 00' 00"
Sunlit
Object was in daylight at epoch
Visualization orbit readout
Latitude
Unknown
Longitude
Unknown
Altitude
Unknown
Speed
Unknown
Apparent Right ascension
Unknown
Apparent Declination
Unknown
Sunlit
N/A
Visualization observer readout
Local Sidereal Time
02:24:31
Azimuth
Unknown
Elevation
Unknown
Doppler factor
Unknown
Orbital elements
Apogee altitude
359.544 km
Perigee altitude
357.05 km
Semi-major axis
6,736.434 km
Eccentricity
0.00019
Inclination
42.9982°
RAAN
282.8268°
Arg. of periapsis
262.9249°
True anomaly
97.16185°
Mean anomaly
97.1408°
Eccentric anomaly
97.15132°
Mean motion
3.92553 °/min
Orbital period
91.71 mins
BSTAR
0.0019141
Loading maneuver chart data...
Computing Atmospheric mass density...
Loading historical data...
Loading historical data...
Loading historical data...
Loading historical data...
Loading historical data...
Loading historical data...
Loading historical data...

Documentation

Showing up to 5 results
|